User: anonymous   Login
Location: Dunedin
(45.8670°S, 170.5000°E)
Time: 12:20:07
(UTC+13:00)
Language:

IRAS Rocket - Orbit

View from above orbital plane
View from above orbital plane
View from above satellite
View from above satellite

Ground track
Ground track

The orbit data is extracted from the following two-line orbital elements,

1 13778U 83004B   19290.45514441 -.00000042  00000-0  65694-5 0  9992
2 13778 100.0348  22.8459 0021376  38.2070 322.0606 14.09009257887046
Epoch (UTC): 17 October 2019 10:55:24
Eccentricity: 0.0021376
inclination: 100.0348°
perigee height: 847 km
apogee height: 878 km
right ascension of ascending node: 22.8459°
argument of perigee: 38.2070°
revolutions per day: 14.09009257
mean anomaly at epoch: 322.0606°
orbit number at epoch: 88704

The dashed part of the orbit path shows where the satellite is in the earth's shadow,  

DLR